This demonstration page uses our WeatherBlox Daily Observations layout. Learn more.

Left ArrowRight Arrow

41.86663, -103.66717

Hourly Observations for June 14, 2016

Temp ( °F °C ) Dew Point ( °F °C ) Humidity (%) Winds ( mph kmh ) Pressure ( in mb ) Visibility ( mi km ) Precip ( " mm )
12:53 am 00:53 Clear 61 16.1 57 13.9 87 87 E 8 13 29.78 1008 10 16 0.00 0.00
1:41 am 01:41 Mostly Cloudy 62 16.7 58 14.4 86 86 SE 10 17 29.80 1009 10 16 0.00 0.00
1:53 am 01:53 Cloudy 62 16.7 58 14.4 86 86 SE 12 19 29.76 1008 10 16 0.00 0.00
2:25 am 02:25 Cloudy 62 16.7 58 14.4 86 86 ESE 6 9 29.77 1008 10 16 0.00 0.00
2:53 am 02:53 Cloudy 62 16.7 58 14.4 86 86 Calm 29.75 1007 10 16 0.00 0.00
3:24 am 03:24 Partly Cloudy 61 16 57 14 88 88 Calm 29.77 1008 10 16 0.00 0.00
3:53 am 03:53 Mostly Cloudy 61 16.1 58 14.4 90 90 SSW 3 6 29.73 1007 10 16 0.00 0.00
4:53 am 04:53 Mostly Clear 60 15.6 57 13.9 90 90 Calm 29.72 1007 10 16 0.00 0.00
5:53 am 05:53 Sunny 61 16.1 58 14.4 90 90 Calm 29.74 1007 9 14 0.00 0.00
6:53 am 06:53 Sunny 63 17.2 58 14.4 84 84 Calm 29.74 1007 10 16 0.00 0.00
7:53 am 07:53 Sunny 67 19.4 50 10 55 55 WNW 12 19 29.74 1007 10 16 0.00 0.00
8:53 am 08:53 Sunny 70 21.1 48 8.9 46 46 W 13 20 29.73 1007 10 16 0.00 0.00
9:53 am 09:53 Sunny 73 22.8 48 8.9 41 41 W 17 28 29.71 1006 10 16 0.00 0.00
10:53 am 10:53 Sunny 76 24.4 46 7.8 35 35 W 16 26 29.70 1006 10 16 0.00 0.00
11:53 am 11:53 Sunny 79 26.1 45 7.2 30 30 WNW 16 26 29.68 1005 10 16 0.00 0.00
12:53 pm 12:53 Sunny 81 27.2 46 7.8 29 29 W 13 20 29.67 1005 10 16 0.00 0.00
1:53 pm 13:53 Sunny 82 27.8 43 6.1 25 25 W 10 17 29.66 1004 10 16 0.00 0.00
2:53 pm 14:53 Sunny 83 28.3 43 6.1 24 24 WNW 16 26 29.65 1004 10 16 0.00 0.00
3:53 pm 15:53 Sunny 85 29.4 44 6.7 24 24 W 9 15 29.64 1004 10 16 0.00 0.00
4:53 pm 16:53 Sunny 85 29.4 42 5.6 22 22 WNW 12 19 29.63 1004 10 16 0.00 0.00
5:53 pm 17:53 Sunny 84 28.9 40 4.4 21 21 W 13 20 29.63 1003 10 16 0.00 0.00
6:53 pm 18:53 Sunny 82 27.8 41 5 23 23 WNW 9 15 29.64 1004 10 16 0.00 0.00
7:53 pm 19:53 Sunny 78 25.6 44 6.7 30 30 WNW 5 7 29.65 1004 10 16 0.00 0.00
8:53 pm 20:53 Mostly Clear 74 23.3 46 7.8 37 37 SW 5 7 29.67 1005 10 16 0.00 0.00
9:53 pm 21:53 Clear 68 20 51 10.6 55 55 S 7 11 29.70 1006 10 16 0.00 0.00
10:53 pm 22:53 Clear 63 17.2 51 10.6 65 65 Calm 29.73 1007 10 16 0.00 0.00
11:53 pm 23:53 Clear 60 15.6 52 11.1 75 75 ENE 5 7 29.74 1007 10 16 0.00 0.00

Powered by AerisWeather